User: anonymous   Login
Location: Homewood
(41.1836°S, 175.9581°E)
Time: 01:27:43
(UTC+00:00)
Language:

SL-16 R/B - Orbit

View from above orbital plane
View from above orbital plane
View from above satellite
View from above satellite

Ground track
Ground track

The orbit data is extracted from the following two-line orbital elements,

1 27006U 01056F   24174.44259983 -.00000029  00000-0  18608-4 0  9998
2 27006  99.6865 321.6463 0014954 151.7738 277.1009 13.71032530127517
Epoch (UTC): 22 June 2024 10:37:20
Eccentricity: 0.0014954
inclination: 99.6865°
perigee height: 985 km
apogee height: 1007 km
right ascension of ascending node: 321.6463°
argument of perigee: 151.7738°
revolutions per day: 13.71032530
mean anomaly at epoch: 277.1009°
orbit number at epoch: 12751

The dashed part of the orbit path shows where the satellite is in the earth's shadow,  

DLR